Погода в Мантурово

Россия / Рязанская область     54°40′52″N   39°26′28″E
темп.,
°C
ветер,
м/с
пор.,
м/с
влажн.,
%
обл.,
%
осадки,
мм/ч
давл.,
гПа
погр.,
м
24 июля, сб
сб2400:00+13зсз37865 0.0 1009120
03:00+11сз38885 0.0 1010133
06:00+12сз368598 0.0 1010172
09:00+15сз3671100 0.0 1012307
12:00+19сз34545 0.0 1012797
15:00+20сз455025 0.0 1013995
18:00+18с3756100 0.0 1015265
21:00+14ссв226837 0.0 101721
25 июля, вс
вс2500:00+14ссв116799 0.0 101814
03:00+15с1165100 0.0 101911
06:00+15св1163100 0.0 102015
09:00+17ссв115394 0.0 1021351
12:00+21ю013820 0.0 10221599
15:00+22юз333331 0.0 10212323
18:00+20зюз464731 0.0 1022409
21:00+17зюз345298 0.0 102379
26 июля, пн
пн2600:00+14юз116141 0.0 102411
03:00+16зюз2354100 0.0 102444
06:00+16зюз2257100 0.0 102542
09:00+20юз23484 0.0 1025450
12:00+24зюз33375 0.0 10242010
15:00+25сз333592 0.0 10232409
18:00+24ссз23435 0.0 1023589
21:00+18зюз115050 0.0 102311
27 июля, вт
вт2700:00+16з22545 0.0 102411
03:00+15з33625 0.0 102427
06:00+16з22655 0.0 102443
09:00+23з22485 0.0 1024457
12:00+26з23395 0.0 10231917
15:00+25сз3447100 0.0 1022803
18:00+23ссз125493 0.0 102119
21:00+20з226217 0.0 102111
28 июля, ср
ср2800:00+19зюз235910 0.0 102129
03:00+16з22735 0.0 102013
06:00+17з22722 0.0 102041
09:00+24зюз23540 0.0 1019480
12:00+28зюз34400 0.0 10172193
15:00+28юз453672 0.0 10162604
18:00+28зюз244399 0.0 1014407
21:00+21з2255100 0.0 101311